DW1970 Weather Reports


Display with metric or nautical units.
time (UTC)temp
F
wind
direction
speed
MPH
gust
MPH
rain 1hr
in
rain 24hr
in
rain mn
in
humidity
%
barometer
mb
20260510104610 50 339 0.0 0.0 0.00 0.01 0.00 96 1014.2
20260510103055 51 338 0.0 0.0 0.00 0.01 0.00 96 1014.2
20260510101602 51 338 0.0 0.0 0.00 0.01 0.00 96 1014.1
20260510094604 51 337 0.0 0.0 0.00 0.01 0.00 96 1014.1
20260510093053 51 291 0.0 0.0 0.00 0.01 0.00 96 1014.2
20260510091552 51 291 0.0 0.0 0.00 0.01 0.00 96 1014.1
20260510090052 51 331 0.0 0.0 0.00 0.01 0.00 96 1014.3
20260510084550 51 332 0.0 0.0 0.00 0.01 0.00 96 1014.5
20260510083050 51 333 0.0 0.0 0.00 0.01 0.00 96 1014.5
20260510081548 50 223 0.0 0.0 0.00 0.01 0.00 96 1014.5
20260510080056 51 223 0.0 0.0 0.00 0.01 0.00 96 1014.3
20260510074546 51 314 0.0 0.0 0.00 0.01 0.00 96 1014.3
20260510073048 51 340 0.0 0.0 0.00 0.01 0.00 96 1014.5
20260510071543 51 348 1.0 6.0 0.00 0.01 0.00 96 1014.6
20260510070052 51 352 0.0 5.0 0.00 0.01 0.00 96 1014.6
20260510064549 51 339 0.0 0.0 0.00 0.01 0.01 96 1014.5
20260510063043 51 345 0.0 0.0 0.00 0.01 0.01 96 1014.4
20260510061539 51 345 0.0 0.0 0.00 0.01 0.01 96 1014.3
20260510060041 51 346 0.0 0.0 0.00 0.01 0.01 95 1014.3
20260510054545 51 341 0.0 0.0 0.00 0.01 0.01 95 1014.4
20260510053036 51 331 0.0 0.0 0.00 0.01 0.01 95 1014.3
20260510051537 51 337 0.0 0.0 0.00 0.01 0.01 95 1014.3
20260510050040 51 308 0.0 0.0 0.00 0.01 0.01 95 1014.3
20260510044537 51 338 0.0 8.0 0.00 0.01 0.01 95 1014.2
20260510043036 51 337 0.0 11.0 0.00 0.01 0.01 95 1014.2
20260510041545 51 358 1.0 9.0 0.00 0.01 0.01 95 1014.2
20260510040034 51 344 0.0 0.0 0.00 0.01 0.01 94 1014.0
20260510034534 52 343 0.0 0.0 0.00 0.01 0.01 94 1013.7
20260510033032 52 331 0.0 4.0 0.00 0.01 0.01 94 1013.5
20260510031534 52 325 0.0 1.0 0.00 0.01 0.01 93 1013.4
20260510030031 52 1 0.0 12.0 0.00 0.01 0.01 93 1013.4
20260510024532 53 339 4.0 16.0 0.00 0.01 0.01 93 1013.4
20260510023029 53 343 8.0 17.0 0.00 0.01 0.01 92 1013.4
20260510021535 54 17 7.0 17.0 0.00 0.01 0.01 92 1013.4
20260510020029 54 25 4.0 17.0 0.00 0.01 0.01 91 1013.5
20260510014525 54 356 4.0 21.0 0.00 0.01 0.01 92 1013.7
20260510013028 54 349 5.0 19.0 0.00 0.01 0.01 91 1013.7
20260510011523 55 339 6.0 19.0 0.00 0.01 0.01 91 1013.9
20260510010021 55 354 5.0 18.0 0.00 0.01 0.01 90 1013.9
20260510004519 56 31 9.0 18.0 0.00 0.01 0.01 89 1014.1
20260510003019 56 23 5.0 19.0 0.00 0.01 0.01 90 1014.2
20260510001528 56 338 9.0 19.0 0.00 0.01 0.01 88 1014.4
20260510000016 57 349 5.0 14.0 0.00 0.01 0.01 87 1014.4
20260509234516 57 10 10.0 19.0 0.00 0.01 0.01 88 1014.6
20260509233014 57 11 2.0 16.0 0.00 0.01 0.01 88 1014.7
20260509231514 57 19 6.0 20.0 0.00 0.01 0.01 88 1014.8
20260509230012 57 357 10.0 17.0 0.00 0.01 0.01 87 1014.8
20260509224511 58 14 10.0 20.0 0.00 0.01 0.01 87 1014.9
20260509223012 58 8 9.0 19.0 0.00 0.01 0.01 87 1015.2
20260509221510 58 8 3.0 17.0 0.00 0.01 0.01 89 1015.5
20260509220010 57 349 4.0 18.0 0.00 0.01 0.01 88 1015.5
20260509214507 57 10 9.0 19.0 0.00 0.01 0.01 87 1015.6
20260509213007 58 347 9.0 17.0 0.01 0.01 0.01 87 1015.9
20260509211505 57 350 5.0 19.0 0.01 0.01 0.01 88 1016.1
20260509210005 57 358 11.0 21.0 0.01 0.01 0.01 87 1015.9
20260509204506 57 347 8.0 19.0 0.01 0.01 0.01 88 1016.1
20260509203103 57 351 8.0 18.0 0.00 0.00 0.00 87 1016.0
20260509201502 58 358 10.0 20.0 0.00 0.00 0.00 88 1016.1
20260509200003 58 340 6.0 18.0 0.00 0.00 0.00 87 1016.2
20260509194501 58 6 6.0 17.0 0.00 0.00 0.00 87 1016.3
20260509193100 58 13 6.0 12.0 0.00 0.00 0.00 87 1016.2
20260509191614 58 343 0.0 5.0 0.00 0.00 0.00 88 1016.4
20260509184558 58 300 0.0 0.0 0.00 0.00 0.00 86 1016.4
20260509183055 58 229 0.0 0.0 0.00 0.00 0.00 87 1016.4
20260509181602 57 259 0.0 1.0 0.00 0.00 0.00 87 1016.4
20260509180053 57 231 0.0 3.0 0.00 0.00 0.00 87 1016.5
20260509174557 56 222 0.0 0.0 0.00 0.01 0.00 90 1016.4
20260509173058 56 222 0.0 1.0 0.00 0.01 0.00 91 1016.4
20260509171551 55 216 0.0 0.0 0.00 0.01 0.00 92 1016.4
20260509170045 55 272 0.0 0.0 0.00 0.01 0.00 94 1016.2
20260509164545 54 272 0.0 1.0 0.00 0.03 0.00 95 1016.1
20260509163038 53 240 0.0 3.0 0.00 0.03 0.00 94 1016.2
20260509161537 53 227 0.0 0.0 0.00 0.03 0.00 94 1016.2
20260509160036 52 267 0.0 0.0 0.00 0.03 0.00 94 1016.3
20260509154536 52 272 0.0 0.0 0.00 0.03 0.00 94 1016.1
20260509153035 52 6 0.0 0.0 0.00 0.03 0.00 94 1016.0
20260509151535 52 12 0.0 0.0 0.00 0.03 0.00 93 1016.0
20260509150034 52 13 0.0 0.0 0.00 0.03 0.00 94 1015.9
20260509144536 52 133 0.0 0.0 0.00 0.03 0.00 94 1015.9
20260509143038 51 133 0.0 0.0 0.00 0.03 0.00 95 1015.8
20260509141532 50 141 0.0 0.0 0.00 0.03 0.00 95 1015.9
20260509140049 50 144 0.0 0.0 0.00 0.03 0.00 94 1015.9
20260509134529 49 142 0.0 0.0 0.00 0.03 0.00 94 1015.7
20260509133028 49 87 0.0 0.0 0.00 0.03 0.00 93 1015.7
20260509131535 49 81 0.0 0.0 0.00 0.03 0.00 93 1015.5
20260509130029 49 22 0.0 0.0 0.00 0.03 0.00 92 1015.3
20260509124526 50 48 0.0 0.0 0.00 0.03 0.00 92 1015.3
20260509123026 50 77 0.0 0.0 0.00 0.03 0.00 91 1015.3
20260509121531 51 123 0.0 0.0 0.00 0.03 0.00 91 1015.1
20260509120019 52 125 0.0 0.0 0.00 0.03 0.00 92 1015.0
20260509114516 51 101 0.0 1.0 0.00 0.03 0.00 93 1015.0
20260509113014 51 152 0.0 1.0 0.00 0.03 0.00 93 1015.1
20260509111512 50 157 0.0 2.0 0.00 0.03 0.00 93 1015.0